Powrót do katalogu

FENGYUN 1C DEB

AktywnySSO
NORAD 30280·DEBRIS·🇨🇳 China

Wystrzelony May 10, 1999 z Taiyuan Satellite Launch Center

Loading…

Następne Przeloty (najbliższe 24 godziny)

TLE

ŚwieżeSource: Space-Track

Epoka: Sep 14, 2026, 17:05 UTC

1 30280U 99025YR  26257.71204948  .00000465  00000-0  34472-3 0  9993
2 30280  98.7991 240.5857 0079126 284.2677 251.7801 13.98549122  2314

Śledź FENGYUN 1C DEB w czasie rzeczywistym z AllMySat

Download on the App Store